Location: Appeville
(49.3218°N, 1.3427°W)
Time: 14:09:58
(UTC+00:00)

Cosmos 2263 Rocket - Pass Details

Date: 08 December 2019
Orbit: 824 x 848 km, 71.0° (Epoch: 28 January)

Event Time Altitude Azimuth Distance (km) Brightness Sun altitude
Rises 05:28:47 0° 191° (S) 3,358 5.3 -21.5°
Reaches altitude 10° 05:31:15 10° 186° (S) 2,426 4.6 -21.1°
Maximum altitude 05:36:38 53° 111° (ESE) 1,010 2.9 -20.2°
Drops below altitude 10° 05:42:02 10° 36° (NE) 2,434 4.9 -19.4°
Sets 05:44:31 0° 32° (NNE) 3,371 5.6 -19.0°
